This is the latest recevied weather packets stored in our database for station/object NY3Q. If no packets are shown the sender has not sent any weather packets the latest 10 day(s).
| Time | Temp. | Humidity | Pressure | Rain* | Wind** | Luminosity | Snow |
|---|---|---|---|---|---|---|---|
| 1777309618 | 20.56° C | 76% | 1020.6 hPa | 0 mm | - | 206 W/m² | - |
| 1777309315 | 20.56° C | 76% | 1020.5 hPa | 0 mm | - | 220 W/m² | - |
| 1777308100 | 21.11° C | 76% | 1020.1 hPa | 0 mm | - | 336 W/m² | - |
| 1777307797 | 21.11° C | 76% | 1020.2 hPa | 0 mm | - | 339 W/m² | - |
| 1777307495 | 21.11° C | 76% | 1020.2 hPa | 0 mm | - | 342 W/m² | - |
| 1777307192 | 21.11° C | 75% | 1020.3 hPa | 0 mm | - | 374 W/m² | - |
| 1777306586 | 20.56° C | 76% | 1020.2 hPa | 0 mm | - | 220 W/m² | - |
| 1777306281 | 21.11° C | 74% | 1020.2 hPa | 0 mm | - | 207 W/m² | - |
| 1777305977 | 21.11° C | 75% | 1020.1 hPa | 0 mm | - | 282 W/m² | - |
| 1777305674 | 21.11° C | 75% | 1020.3 hPa | 0 mm | - | 279 W/m² | - |
| 1777305370 | 21.11° C | 74% | 1020.2 hPa | 0 mm | - | 241 W/m² | - |
| 1777305070 | 21.67° C | 75% | 1020 hPa | 0 mm | - | 272 W/m² | - |
| 1777304462 | 21.11° C | 76% | 1020.1 hPa | 0 mm | - | 260 W/m² | - |
| 1777304159 | 21.67° C | 75% | 1020.5 hPa | 0 mm | - | 253 W/m² | - |
| 1777303856 | 21.11° C | 76% | 1020 hPa | 0 mm | - | 450 W/m² | - |
| 1777303250 | 21.11° C | 77% | 1020.1 hPa | 0 mm | - | 299 W/m² | - |
| 1777302949 | 21.11° C | 78% | 1020.2 hPa | 0 mm | - | 225 W/m² | - |
| 1777302041 | 21.11° C | 77% | 1019.8 hPa | 0 mm | - | 172 W/m² | - |
| 1777301739 | 21.11° C | 78% | 1019.9 hPa | 0 mm | - | 246 W/m² | - |
| 1777300829 | 21.11° C | 78% | 1019.6 hPa | 0 mm | - | 204 W/m² | - |
| 1777300528 | 20.56° C | 79% | 1019.6 hPa | 0 mm | - | 205 W/m² | - |
| 1777300225 | 21.11° C | 78% | 1019.3 hPa | 0 mm | - | 166 W/m² | - |
| 1777299920 | 21.11° C | 78% | 1019.5 hPa | 0 mm | - | 170 W/m² | - |
| 1777299618 | 21.11° C | 79% | 1019.7 hPa | 0 mm | - | 310 W/m² | - |
| 1777299316 | 21.11° C | 80% | 1019.3 hPa | 0 mm | - | 193 W/m² | - |
* Rain latest hour (hover to see other rain measurements)
** Current wind speed in m/s (hover to see current wind gust speed)